パンスターズ彗星

C/2017 S3 ( PanSTARRS )

English version
Home page
Updated on November 23, 2017

---------------------------------------------------------------------

・ プロフィール

発見日 2017年9月23日
発見光度 21.5等
発見者 Pan-STARRS 1 telescope (Haleakala)

・ 写真集

・ 軌道要素

Epoch 2018 Aug. 30.0 TT = JDT 2458360.5
T 2018 Aug. 15.91729 TT                                 MPCW
q   0.2084485            (2000.0)            P               Q
z  -0.0004536      Peri.  255.89239     +0.21711500     -0.96400627
 +/-0.0000554      Node   171.06012     +0.20820231     +0.19933494
e   1.0000946      Incl.   99.03519     -0.95368384     -0.17594743
From 39 observations 2017 Aug. 17-Oct. 14, mean residual 0".4.

・ 星図

・ 光度変化

        m1 = 10.0 + 5 logΔ + 10.0 log r

---------------------------------------------------------------------

軌道要素はM.P.E.C. 2017-V13に掲載されたものです。
星図はステラナビゲータ Ver.10 (アストロアーツ) で作成したものです。
光度グラフはComet for Windowsで作成したものです。

---------------------------------------------------------------------

Copyright(C) Seiichi Yoshida (comet@aerith.net). All rights reserved.